Location: Ellerstadt
(49.4644°N, 8.2615°E)
Time: 11:53:09
(UTC+00:00)

SME Rocket - Pass Details

Date: 03 March 2021
Orbit: 550 x 2652 km, 99.9° (Epoch: 12 April)

Event Time Altitude Azimuth Distance (km) Brightness Sun altitude
Rises 19:05:29 0° 16° (NNE) 5,116 7.7 -18.9°
Reaches altitude 10° 19:09:07 10° 19° (NNE) 3,803 7.0 -19.5°
Maximum altitude 19:17:37 69° 102° (ESE) 1,188 4.2 -20.9°
Drops below altitude 10° 19:23:03 10° 186° (S) 2,470 6.0 -21.7°
Sets 19:25:00 0° 189° (S) 3,231 6.7 -22.0°
